Aeroporto :
LOGIN :

Iscrizione | Disclaimer

   EN    FR    IT 

 










Sommario :    VFR   VFR Marginale   IFR   IFR Intensivo   IFR Molto Intensivo
Visibilità : 
Base nubi : 
>= 8 km
>= 3000ft
5 / 8 km
1000 / 3000 ft
1500m / 5 km
500 / 1000 ft
800 / 1500m
200 / 500 ft
< 800m
< 200 ft
Simboli :   Temporali  Nebbia  Neve Forte  Precipitazioni Forti  Vento > 20 kt
SIGMETs :   Varie  Temporali  Ghiacco  Turbolenza  Onda orograficha  Ceneri Vulcaniche







- Altitudine del aeroporto : 989 ft
- Codice IATA : TRN


LIMF - Torino Caselle

ULTIMO METAR :
  • 251550Z 08004KT 050V120 CAVOK 32/19 Q1022

METARs OBSOLETI :
  • 251520Z VRB03KT CAVOK 32/18 Q1022
  • 251450Z VRB01KT CAVOK 33/20 Q1022
  • 251420Z 08003KT 360V130 CAVOK 32/19 Q1022
  • 251350Z 09004KT 030V130 CAVOK 31/19 Q1022
  • 251320Z 26004KT 220V340 CAVOK 31/19 Q1022

TAF TAF LIMF
Valido dal 25 a 12 ore il 26 a 12 ore UTC


251100Z 2512/2612 VRB05KT CAVOK
Nessun NOTAM noto per questo aeroporto.



MetMap, La meteo Aeronautica in un colpo d'occhio ! - Copyright ORBIFLY Dicembre 2007 - Disclaimer

ORBIFLY MET'MAP TEAM :

Programmazione e sviluppo : Alexandra Zaïnal
Concezione e sviluppo : Baudouin d'Aumeries
Co-Programmazione e sviluppo : Marc-Olivier Méhu
Supporto tecnico e logistico : Manuel Goepfert
Aiuto per la traduzione : Arnaldo La Scala

Contatto : metmap@orbifly.com




FONTI E CREDITI :

   NOAA